Weather History for KTIF - August, 2013

Change the Weather History Date:

Friday, August 23, 2013

  Actual Average (KLBF) Record (KLBF)
Temperature  
Mean Temperature 78 °F 71 °F  
Max Temperature 89 °F 85 °F 106 °F (1938)
Min Temperature 68 °F 57 °F 40 °F (2015)
Degree Days  
Heating Degree Days 0 1  
Month to date heating degree days 2  
Since 1 June heating degree days 58  
Since 1 July heating degree days 7  
Cooling Degree Days 14 7  
Month to date cooling degree days 189  
Year to date cooling degree days 648  
Since 1 June cooling degree days 620  
Growing Degree Days 28 (Base 50)    
Moisture  
Dew Point 65 °F    
Average Humidity 70    
Maximum Humidity 92    
Minimum Humidity 34    
Precipitation  
Precipitation 0.00 in 0.06 in 1.34 in (1906)
Month to date precipitation 1.86  
Year to date precipitation 15.79  
Snow  
Snow 0.00 in 0.00 in 0.00 in (2002)
Month to date snowfall 0.0  
Since 1 June snowfall 0.0  
Since 1 July snowfall 0.0  
Snow Depth -    
Sea Level Pressure  
Sea Level Pressure 30.02 in    
Wind  
Wind Speed 6 mph (SE)    
Max Wind Speed 21 mph    
Max Gust Speed 25 mph    
Visibility 8 miles    
Events      
T = Trace of Precipitation, MM = Missing Value Source: NWS Daily Summary

Daily Weather History Graph

Daily Weather History Graph

Search for Another Location

Airport or City:

Trip Planner

Search our weather history database for the weather conditions in past years. The results will help you decide how hot, cold, wet, or windy it might be!

Date:

Astronomy

Aug. 23, 2013 Rise Set
Actual Time 6:58 AM CDT 8:29 PM CDT
Civil Twilight 6:29 AM CDT 8:59 PM CDT
Nautical Twilight 5:54 AM CDT 9:34 PM CDT
Astronomical Twilight 5:16 AM CDT 10:11 PM CDT
Moon 9:45 PM CDT (8/23) 10:00 AM CDT (8/23)
Length of Visible Light 14h 29m
Length of Day
13h 31m
Waning Gibbous, 91% of the Moon is Illuminated
Aug 23
Waning Gibbous
Aug 28
Last Quarter
Sep 5
New
Sep 12
First Quarter
Sep 19
Full

Hourly Weather History & Observations

Time (CDT) Temp. Heat Index Dew Point Humidity Pressure Visibility Wind Dir Wind Speed Gust Speed Precip Events Conditions
12:15 AM 68.0 °F - 65.5 °F 92% 30.13 in 4.0 mi Calm Calm - N/A   Scattered Clouds
12:35 AM 68.0 °F - 65.5 °F 92% 30.13 in 5.0 mi SE 3.5 mph - N/A   Scattered Clouds
12:55 AM 68.2 °F - 65.7 °F 92% 30.13 in 5.0 mi ESE 4.6 mph - N/A   Scattered Clouds
1:15 AM 68.0 °F - 65.5 °F 92% 30.13 in 4.0 mi ESE 3.5 mph - N/A   Mostly Cloudy
1:35 AM 68.4 °F - 65.8 °F 92% 30.12 in 5.0 mi Calm Calm - N/A   Overcast
1:55 AM 68.4 °F - 65.8 °F 92% 30.11 in 4.0 mi ESE 4.6 mph - N/A   Overcast
2:15 AM 68.9 °F - 66.2 °F 91% 30.11 in 5.0 mi ESE 4.6 mph - N/A   Overcast
2:35 AM 69.3 °F - 66.6 °F 91% 30.11 in 5.0 mi Calm Calm - N/A   Overcast
2:55 AM 69.4 °F - 66.7 °F 91% 30.11 in 5.0 mi East 3.5 mph - N/A   Overcast
3:15 AM 69.8 °F - 66.9 °F 91% 30.10 in 5.0 mi East 3.5 mph - N/A   Overcast
3:35 AM 69.8 °F - 66.7 °F 90% 30.09 in 5.0 mi ESE 5.8 mph - N/A   Overcast
3:55 AM 69.8 °F - 66.6 °F 89% 30.09 in 7.0 mi ESE 5.8 mph - N/A   Overcast
4:15 AM 69.8 °F - 66.4 °F 89% 30.08 in 5.0 mi ESE 4.6 mph - N/A   Overcast
4:35 AM 69.8 °F - 66.4 °F 89% 30.08 in 5.0 mi ESE 3.5 mph - N/A   Overcast
4:55 AM 69.8 °F - 66.6 °F 89% 30.08 in 5.0 mi SE 3.5 mph - N/A   Overcast
5:15 AM 69.8 °F - 66.4 °F 89% 30.07 in 5.0 mi SE 4.6 mph - N/A   Overcast
5:35 AM 69.3 °F - 66.2 °F 90% 30.07 in 5.0 mi SE 3.5 mph - N/A   Overcast
5:55 AM 69.4 °F - 66.4 °F 90% 30.07 in 5.0 mi Calm Calm - N/A   Overcast
6:15 AM 69.3 °F - 66.2 °F 90% 30.06 in 5.0 mi Calm Calm - N/A   Overcast
6:35 AM 69.1 °F - 66.2 °F 91% 30.06 in 5.0 mi Calm Calm - N/A   Overcast
6:55 AM 69.1 °F - 66.2 °F 91% 30.07 in 5.0 mi Calm Calm - N/A   Overcast
7:15 AM 69.4 °F - 66.4 °F 90% 30.07 in 4.0 mi Calm Calm - N/A   Overcast
7:35 AM 69.8 °F - 66.4 °F 89% 30.07 in 4.0 mi SE 4.6 mph - N/A   Overcast
7:55 AM 69.8 °F - 66.4 °F 89% 30.07 in 4.0 mi Calm Calm - N/A   Overcast
8:15 AM 70.7 °F - 65.5 °F 83% 30.07 in 7.0 mi South 4.6 mph - N/A   Overcast
8:35 AM 71.2 °F - 65.3 °F 81% 30.07 in 7.0 mi Calm Calm - N/A   Overcast
8:55 AM 71.6 °F - 65.1 °F 80% 30.06 in 7.0 mi South 3.5 mph - N/A   Overcast
9:15 AM 71.6 °F - 65.1 °F 80% 30.05 in 7.0 mi Calm Calm - N/A   Overcast
9:35 AM 72.1 °F - 64.9 °F 78% 30.05 in 7.0 mi Calm Calm - N/A   Overcast
9:55 AM 72.7 °F - 65.5 °F 78% 30.04 in 7.0 mi ESE 3.5 mph - N/A   Overcast
10:15 AM 72.7 °F - 65.1 °F 77% 30.03 in 7.0 mi SE 3.5 mph - N/A   Mostly Cloudy
10:35 AM 72.1 °F - 65.3 °F 79% 30.04 in 10.0 mi SE 6.9 mph - N/A   Mostly Cloudy
10:55 AM 72.3 °F - 65.3 °F 78% 30.05 in 7.0 mi SSE 5.8 mph - N/A   Mostly Cloudy
11:15 AM 72.5 °F - 65.5 °F 79% 30.05 in 7.0 mi SSE 6.9 mph - N/A   Mostly Cloudy
11:35 AM 73.4 °F - 65.5 °F 76% 30.04 in 10.0 mi South 6.9 mph - N/A   Scattered Clouds
11:55 AM 76.3 °F - 66.0 °F 70% 30.04 in 10.0 mi SE 5.8 mph - N/A   Clear
12:15 PM 77.7 °F - 66.6 °F 68% 30.03 in 10.0 mi SSE 8.1 mph - N/A   Clear
12:35 PM 80.1 °F 82.3 °F 66.9 °F 64% 30.03 in 10.0 mi SE 6.9 mph - N/A   Clear
12:55 PM 82.6 °F 85.1 °F 66.7 °F 59% 30.03 in 10.0 mi SSE 11.5 mph - N/A   Clear
1:15 PM 82.0 °F 84.1 °F 66.0 °F 58% 30.03 in 10.0 mi SSE 8.1 mph - N/A   Clear
1:35 PM 83.5 °F 85.5 °F 65.8 °F 55% 30.02 in 10.0 mi SSE 9.2 mph - N/A   Clear
1:55 PM 84.7 °F 86.8 °F 65.8 °F 53% 30.01 in 10.0 mi SSE 11.5 mph - N/A   Clear
2:15 PM 85.5 °F 87.9 °F 66.4 °F 53% 30.00 in 10.0 mi South 10.4 mph 18.4 mph N/A   Clear
2:35 PM 87.1 °F 88.9 °F 64.9 °F 48% 30.00 in 10.0 mi South 13.8 mph 23.0 mph N/A   Clear
2:55 PM 87.6 °F 89.7 °F 65.5 °F 48% 29.99 in 10.0 mi South 17.3 mph 23.0 mph N/A   Scattered Clouds
3:15 PM 88.3 °F 87.3 °F 57.9 °F 36% 29.99 in 10.0 mi SSE 20.7 mph 25.3 mph N/A   Clear
3:35 PM 89.1 °F 88.5 °F 59.7 °F 37% 29.98 in 10.0 mi South 18.4 mph 24.2 mph N/A   Clear
3:55 PM 88.9 °F 88.5 °F 60.4 °F 38% 29.98 in 10.0 mi South 15.0 mph 23.0 mph N/A   Clear
4:15 PM 88.2 °F 88.4 °F 61.9 °F 41% 29.97 in 10.0 mi SSE 18.4 mph 23.0 mph N/A   Clear
4:35 PM 88.9 °F 88.8 °F 60.8 °F 39% 29.97 in 10.0 mi SSE 18.4 mph 21.9 mph N/A   Clear
4:55 PM 88.7 °F 88.0 °F 59.4 °F 37% 29.96 in 10.0 mi SSE 20.7 mph 25.3 mph N/A   Clear
5:15 PM 88.7 °F 87.3 °F 56.7 °F 34% 29.96 in 10.0 mi South 16.1 mph 25.3 mph N/A   Clear
5:35 PM 87.6 °F 86.7 °F 58.1 °F 37% 29.96 in 10.0 mi SSE 17.3 mph 21.9 mph N/A   Clear
5:55 PM 87.3 °F 86.5 °F 59.0 °F 38% 29.95 in 10.0 mi SSE 17.3 mph 21.9 mph N/A   Clear
6:15 PM 86.7 °F 86.3 °F 59.7 °F 40% 29.95 in 10.0 mi SSE 17.3 mph 23.0 mph N/A   Clear
6:35 PM 86.0 °F 86.1 °F 60.8 °F 43% 29.94 in 10.0 mi SSE 17.3 mph - N/A   Clear
6:55 PM 85.5 °F 86.1 °F 62.4 °F 46% 29.94 in 10.0 mi SSE 17.3 mph - N/A   Clear
7:15 PM 84.7 °F 85.4 °F 62.4 °F 47% 29.94 in 10.0 mi SSE 17.3 mph 21.9 mph N/A   Clear
7:35 PM 83.5 °F 84.5 °F 63.0 °F 50% 29.94 in 10.0 mi SSE 13.8 mph 23.0 mph N/A   Clear
7:55 PM 81.9 °F 83.2 °F 63.7 °F 54% 29.93 in 10.0 mi SSE 12.7 mph 19.6 mph N/A   Clear
8:15 PM 80.6 °F 82.3 °F 64.4 °F 58% 29.93 in 10.0 mi SSE 9.2 mph - N/A   Clear
8:35 PM 79.0 °F - 65.1 °F 62% 29.93 in 10.0 mi SSE 9.2 mph - N/A   Clear
8:55 PM 78.3 °F - 65.5 °F 65% 29.94 in 10.0 mi SE 8.1 mph - N/A   Clear
9:15 PM 76.6 °F - 65.7 °F 69% 29.94 in 10.0 mi SE 5.8 mph - N/A   Clear
9:35 PM 75.6 °F - 66.2 °F 73% 29.95 in 10.0 mi SE 6.9 mph - N/A   Clear
9:55 PM 75.7 °F - 66.6 °F 73% 29.96 in 10.0 mi SE 9.2 mph - N/A   Clear
10:15 PM 76.3 °F - 66.2 °F 71% 29.96 in 10.0 mi SSE 9.2 mph - N/A   Clear
10:35 PM 76.1 °F - 66.2 °F 71% 29.95 in 10.0 mi SSE 10.4 mph - N/A   Clear
10:55 PM 75.7 °F - 66.2 °F 72% 29.95 in 10.0 mi SSE 8.1 mph - N/A   Clear
11:15 PM 75.6 °F - 65.8 °F 72% 29.95 in 10.0 mi SSE 11.5 mph - N/A   Clear
11:35 PM 75.7 °F - 66.0 °F 72% 29.95 in 10.0 mi SSE 13.8 mph - N/A   Clear
11:55 PM 76.1 °F - 66.4 °F 72% 29.95 in 10.0 mi SSE 17.3 mph - N/A   Clear